Temperature
15 15 15 15 15 15 15 15 15 15 15 15 15 15 15 15 16 16 15 16 16 16 15 15 15 15 15 15 15 14 14 14 14 14 14 14 14 14
15 15 15 14 14 14 14 14 14 14 14 14 14 14 15 15 15 15 15 15 16 15 15 15 15 15 14 14 14 14 14 14 14 14 14 14 14 14
14 14 14 14 14 14 14 14 14 14 14 14 14 14 14 14 14 15 15 15 15 15 15 15 15 14 14 14 14 14 14 14 14 14 14 14 14 14
14 14 14 14 13 13 14 14 14 14 14 14 14 14 14 14 14 14 14 14 14 15 15 14 14 14 14 14 14 14 14 14 13 13 13 13 13 13
13 13 13 13 13 13 13 14 14 14 14 14 13 13 13 14 14 14 14 14 13 14 14 14 14 14 14 13 13 13 13 13 13 13 13 13 13 13
13 13 13 13 13 13 13 13 13 14 14 13 13 13 13 13 13 13 13 13 13 13 13 13 13 13 13 13 13 13 13 13 13 13 12 12 12 12
13 13 13 13 13 13 13 13 13 13 13 13 13 13 13 13 13 13 13 13 13 13 13 13 13 12 12 12 12 12 12 12 12 12 12 12 12 12
13 13 13 13 13 13 13 13 13 13 13 13 13 13 13 13 13 13 13 13 12 12 12 12 12 12 12 12 12 12 12 12 12 11 11 11 11 11
12 13 13 13 13 13 14 14 14 14 13 13 13 13 13 13 13 13 13 13 12 12 12 11 11 11 11 11 11 11 11 11 11 11 11 11 11 11
12 12 13 13 13 13 13 13 13 13 13 13 13 13 13 13 12 12 12 12 12 12 12 11 11 10 10 10 10 11 11 10 10 10 10 10 10 10
12 12 12 13 13 13 13 13 13 13 13 13 13 13 13 13 13 12 12 12 12 11 11 11 10 10 10 10 10 10 10 10 10 10 10 10 9 9
12 12 12 13 13 13 13 13 13 13 13 13 13 13 12 13 12 12 12 12 12 11 11 11 11 10 10 9 9 9 9 9 9 9 9 9 9 8
11 11 12 12 13 13 13 13 13 13 12 12 12 12 12 12 12 12 12 12 12 11 11 11 11 11 10 9 9 8 8 8 8 8 8 8 8 8
11 11 12 12 12 13 13 13 13 13 12 12 12 12 11 11 11 11 11 11 11 11 11 10 10 10 10 10 9 8 8 8 7 7 7 7 7 8
11 11 11 12 12 12 13 13 12 12 12 12 12 11 11 11 11 11 11 11 11 11 10 10 10 10 10 9 9 8 7 7 7 7 6 6 6 6
11 11 11 12 12 12 12 12 12 12 12 11 11 11 11 10 10 10 10 10 10 10 10 10 9 9 9 8 8 8 7 7 7 6 6 6 6 6
11 11 11 11 11 11 11 11 11 11 11 11 11 11 10 10 10 10 10 9 9 9 9 9 9 9 9 8 7 7 7 6 6 6 6 5 5 5
11 11 11 11 11 11 11 11 11 11 10 10 10 10 10 10 9 9 9 9 9 8 8 8 7 7 7 8 8 7 6 6 6 6 5 5 5 5
10 11 10 10 10 10 10 10 10 10 10 10 10 10 9 9 9 9 9 9 8 8 8 7 7 8 8 8 7 7 6 6 6 5 5 5 5 5
10 10 10 10 10 10 10 10 10 10 10 9 9 9 9 9 9 9 8 8 8 8 7 7 7 7 8 8 6 6 7 6 5 5 5 5 5 5
10 10 9 9 9 9 9 9 9 9 9 9 9 9 8 8 8 8 8 8 8 8 7 7 8 8 7 6 6 6 6 7 6 6 6 5 5 5
9 9 9 9 9 9 9 9 9 9 9 8 8 8 8 8 8 8 8 8 7 7 7 7 7 7 6 6 7 6 5 5 6 7 7 7 6 6
10 10 9 10 9 9 9 9 9 8 8 8 8 8 8 8 8 8 8 7 7 7 7 6 6 6 6 6 6 6 5 5 5 5 5 7 7 7
Wind_Speed
9 9 7 5 5 5 4 5 5 5 5 4 3 2 2 3 2 6 8 10 11 11 11 11 11 10 9 8 8 8 7 7 7 7 8 8 9 9
7 8 7 5 5 4 5 5 5 4 3 3 3 2 1 2 2 4 4 8 8 8 8 9 10 9 9 9 9 9 9 9 9 9 9 9 9 10
7 8 7 6 5 5 5 5 5 4 4 3 2 2 2 2 2 2 3 5 6 6 5 5 6 7 7 7 7 8 8 9 9 9 10 10 10 10
6 6 6 5 6 5 5 5 5 5 4 4 3 2 2 1 2 3 3 3 4 7 5 3 3 2 2 3 4 5 6 7 8 8 9 9 10 10
5 6 6 6 6 5 5 5 5 4 4 4 4 3 2 2 3 3 4 3 4 7 7 7 6 6 5 3 3 3 3 4 5 5 6 6 7 8
4 4 4 5 5 6 5 6 5 5 4 4 4 4 3 2 3 4 4 4 4 5 6 8 9 9 9 8 7 6 5 5 4 4 4 5 5 6
4 4 3 2 2 3 4 5 6 5 5 5 4 4 4 3 3 3 5 5 5 4 5 6 7 7 7 9 9 9 9 9 8 8 7 7 7 7
4 4 4 4 5 4 4 4 3 4 5 5 4 5 5 4 3 3 5 5 4 3 5 6 7 7 9 10 12 13 13 12 12 11 10 10 10 11
4 3 3 4 5 7 9 9 8 7 3 3 5 5 5 4 4 4 4 5 5 3 5 6 6 7 9 13 16 16 16 15 15 14 14 13 14 14
4 3 3 5 6 7 9 9 9 7 4 4 6 7 6 5 4 5 7 8 7 4 3 4 5 6 8 12 17 18 19 18 18 17 15 14 13 15
5 4 3 5 5 3 8 10 10 8 12 15 15 12 12 9 4 4 5 6 6 4 3 3 4 5 6 7 12 17 18 19 19 18 17 15 11 7
5 6 7 5 4 1 6 9 10 9 9 9 9 9 9 8 4 3 3 4 6 4 3 3 4 4 4 4 6 7 10 14 17 18 18 18 17 8
5 4 5 6 4 3 1 6 8 9 8 8 7 7 7 6 6 7 6 4 4 4 2 1 2 2 3 4 4 5 6 6 7 10 14 17 18 15
5 4 5 7 6 3 4 10 8 6 7 7 6 6 6 6 7 8 9 10 9 7 3 1 1 2 3 4 3 3 5 6 6 6 7 7 10 12
7 9 9 7 8 8 10 7 6 5 6 6 6 6 6 6 6 6 8 9 11 10 8 6 4 4 3 4 4 3 2 4 5 5 5 7 7 8
8 9 10 10 9 9 7 5 4 5 5 6 6 6 6 5 5 4 4 5 6 7 10 11 9 7 6 6 5 4 4 3 3 3 3 5 6 7
5 6 6 6 7 6 6 6 6 6 6 6 6 5 5 5 4 3 3 3 5 6 6 7 11 12 10 6 4 4 4 3 2 2 2 3 4 5
5 7 6 6 6 6 6 6 6 5 5 5 5 5 5 4 4 4 3 4 5 5 5 4 4 4 5 6 8 3 3 2 2 2 2 2 3 4
6 7 6 6 5 5 5 5 5 5 4 4 4 4 4 4 4 4 4 4 4 4 3 2 1 2 3 3 4 6 3 2 1 1 2 2 2 3
6 6 6 5 5 5 5 4 4 4 4 4 4 4 4 4 4 4 4 4 4 4 3 2 1 2 2 2 3 3 3 3 2 2 2 2 1 3
5 5 4 4 4 4 4 3 4 4 4 3 4 3 3 3 4 4 4 4 2 3 3 3 3 1 2 3 3 3 3 3 3 4 4 3 3 3
4 4 3 3 3 3 3 3 3 3 3 3 3 3 3 3 4 4 4 4 4 3 4 4 4 3 2 2 2 2 2 3 4 3 1 2 4 4
2 2 2 2 2 2 2 2 2 3 3 3 3 3 3 3 3 3 4 3 4 4 4 4 4 2 2 2 2 1 1 2 2 3 3 6 6 9
Wind_Direction
205 204 204 199 201 211 218 216 215 217 216 206 193 187 225 240 201 226 224 186 202 213 219 220 219 221 227 234 241 247 254 257 258 258 258 263 267 271
196 195 192 192 196 200 207 206 211 216 214 182 185 174 195 211 193 232 203 155 184 200 211 219 221 224 231 239 245 250 254 257 261 263 262 263 266 270
189 189 193 191 189 189 193 196 200 205 210 182 173 188 196 199 173 198 191 190 164 165 188 206 215 223 233 244 251 257 263 265 267 269 270 270 270 273
177 177 178 175 173 177 180 184 185 193 194 183 169 168 175 157 161 163 167 167 148 124 136 143 158 187 220 252 266 274 276 275 276 277 278 280 282 283
168 170 169 167 169 172 176 177 179 179 178 175 152 147 154 150 155 149 141 135 131 126 123 110 99 89 74 55 28 359 334 315 305 300 295 294 298 300
139 146 154 163 171 171 173 173 169 164 164 161 153 150 140 147 160 151 135 125 116 112 100 101 99 91 77 65 55 45 36 25 11 357 342 331 329 330
114 121 129 127 133 168 173 167 163 165 162 159 153 146 140 145 144 145 134 123 94 88 96 88 89 77 69 62 55 53 53 51 46 42 37 33 29 25
99 110 129 142 129 125 95 88 108 157 155 149 145 140 130 126 132 143 143 143 114 79 92 80 74 68 56 50 54 60 60 58 55 52 50 50 51 49
88 107 126 136 147 136 129 124 94 60 37 125 128 120 123 127 135 131 120 108 101 101 104 90 82 77 68 58 60 63 63 62 60 59 60 61 60 58
88 102 126 138 136 143 141 126 113 96 77 96 101 97 94 105 107 108 112 111 106 90 103 100 97 91 83 69 63 66 66 64 62 61 59 58 61 64
83 82 95 113 95 134 139 128 115 99 72 69 71 81 70 52 46 130 140 140 124 104 92 108 119 106 91 91 80 76 72 67 62 58 52 44 37 56
83 81 71 85 88 3 148 139 131 124 123 117 111 119 103 86 26 79 110 132 131 117 103 126 144 143 112 83 79 78 76 79 75 65 54 41 24 32
81 74 75 80 84 26 74 128 128 134 132 125 114 105 96 86 74 66 57 54 93 98 101 156 163 158 132 129 85 62 57 54 66 74 67 58 45 39
85 80 81 85 91 74 88 105 116 135 131 128 118 109 100 91 82 78 75 70 69 80 80 54 98 125 132 129 116 95 66 51 46 45 50 78 70 65
78 75 81 91 106 96 94 111 145 136 128 124 116 105 99 100 99 93 89 84 76 65 57 60 76 83 89 106 107 105 93 61 43 38 42 44 44 39
92 91 84 75 86 95 112 114 107 100 112 114 112 114 113 111 109 109 112 113 97 80 65 64 68 76 84 84 90 85 72 68 41 34 37 50 50 46
100 102 99 99 96 96 95 94 103 112 110 116 123 125 123 118 110 100 99 113 117 112 101 88 81 77 63 52 89 79 78 74 60 24 9 55 57 46
99 96 94 94 96 101 105 105 102 103 111 118 121 124 127 128 125 117 117 118 120 120 120 126 133 135 122 75 32 46 67 61 51 30 2 7 55 52
96 95 94 93 95 97 100 103 102 103 108 116 123 126 127 128 128 128 128 129 131 128 125 140 208 227 216 144 87 27 17 39 6 40 22 353 9 30
86 92 94 95 97 98 100 103 108 113 116 118 120 124 130 134 136 141 140 139 139 137 129 110 58 16 22 91 122 101 32 4 341 350 347 301 272 211
90 92 93 95 96 97 99 107 113 116 120 125 122 125 131 137 138 143 131 120 160 156 141 113 91 338 84 123 135 139 112 73 8 346 337 314 297 281
102 105 101 100 104 104 110 123 131 131 137 138 133 135 133 137 142 150 155 164 166 151 132 125 149 187 199 215 173 150 160 167 172 188 277 323 325 319
128 130 134 136 130 138 145 150 158 153 152 149 147 147 145 144 148 156 163 167 161 159 158 154 154 158 166 182 195 189 199 253 279 256 215 193 236 262
Height
1518 1521 1523 1526 1528 1531 1533 1535 1538 1539 1540 1542 1543 1544 1545 1547 1548 1550 1552 1553 1555 1556 1557 1558 1559 1560 1560 1560 1560 1559 1559 1559 1558 1558 1557 1556 1556 1555
1514 1517 1519 1521 1524 1526 1528 1530 1533 1535 1537 1538 1539 1541 1542 1543 1544 1546 1548 1549 1551 1553 1554 1555 1556 1557 1557 1557 1557 1557 1557 1556 1556 1555 1554 1554 1553 1552
1511 1513 1515 1518 1520 1522 1525 1527 1529 1531 1534 1536 1537 1538 1540 1541 1542 1544 1545 1547 1548 1549 1551 1552 1553 1553 1554 1554 1554 1554 1553 1553 1553 1552 1551 1550 1549 1548
1508 1510 1512 1515 1517 1519 1522 1524 1526 1528 1531 1533 1535 1536 1537 1538 1539 1541 1542 1544 1546 1546 1547 1549 1549 1550 1550 1551 1551 1550 1550 1550 1549 1548 1547 1547 1546 1544
1506 1508 1510 1513 1515 1518 1520 1523 1524 1526 1529 1531 1533 1534 1535 1536 1537 1538 1540 1542 1543 1544 1545 1546 1546 1547 1547 1547 1547 1547 1546 1546 1545 1544 1543 1542 1541 1540
1505 1507 1510 1512 1515 1517 1519 1521 1523 1525 1527 1529 1531 1532 1533 1534 1536 1537 1538 1540 1541 1542 1543 1543 1544 1544 1545 1545 1544 1544 1543 1543 1542 1541 1540 1539 1538 1537
1505 1507 1510 1512 1515 1517 1520 1522 1523 1525 1527 1528 1530 1532 1533 1534 1535 1536 1537 1539 1540 1541 1542 1542 1543 1543 1543 1543 1543 1542 1542 1541 1540 1539 1538 1536 1535 1534
1505 1508 1510 1513 1515 1517 1519 1521 1523 1525 1527 1529 1530 1531 1532 1533 1534 1535 1536 1538 1539 1541 1541 1542 1542 1542 1542 1542 1541 1541 1540 1540 1539 1538 1536 1535 1534 1532
1506 1508 1511 1513 1516 1518 1520 1521 1523 1525 1527 1530 1531 1531 1532 1533 1534 1535 1536 1538 1538 1540 1541 1542 1542 1542 1542 1542 1541 1541 1540 1539 1538 1537 1536 1534 1533 1531
1507 1509 1512 1514 1517 1519 1521 1523 1525 1526 1528 1530 1531 1531 1532 1533 1535 1536 1536 1537 1539 1540 1542 1542 1543 1543 1543 1542 1542 1541 1540 1539 1538 1537 1535 1534 1532 1530
1508 1510 1512 1515 1517 1520 1522 1524 1525 1527 1529 1530 1531 1532 1533 1534 1535 1537 1538 1539 1540 1541 1542 1543 1544 1544 1544 1543 1542 1542 1541 1540 1538 1537 1535 1534 1532 1530
1509 1511 1513 1515 1518 1520 1523 1525 1527 1529 1530 1532 1533 1534 1535 1536 1537 1538 1539 1541 1541 1542 1542 1543 1544 1545 1545 1545 1544 1543 1542 1540 1539 1537 1536 1534 1532 1531
1511 1512 1514 1517 1519 1522 1524 1526 1528 1530 1532 1533 1535 1536 1537 1538 1538 1539 1539 1540 1541 1541 1542 1543 1544 1545 1545 1545 1544 1544 1542 1541 1540 1538 1536 1534 1532 1531
1513 1514 1516 1518 1521 1523 1525 1526 1528 1531 1533 1534 1536 1537 1538 1539 1539 1540 1540 1540 1541 1542 1542 1543 1544 1544 1545 1545 1545 1544 1543 1542 1540 1539 1537 1535 1533 1531
1515 1516 1518 1520 1522 1524 1526 1528 1530 1532 1534 1536 1537 1538 1539 1540 1540 1541 1541 1541 1541 1541 1542 1543 1543 1544 1545 1545 1545 1544 1543 1542 1540 1539 1538 1536 1534 1532
1518 1519 1521 1522 1524 1525 1527 1529 1531 1533 1535 1536 1537 1539 1540 1540 1541 1542 1543 1543 1543 1542 1542 1542 1543 1543 1544 1544 1544 1544 1543 1542 1541 1539 1538 1537 1535 1533
1521 1522 1523 1525 1526 1527 1529 1531 1532 1534 1535 1537 1538 1539 1540 1541 1542 1542 1543 1544 1544 1544 1543 1543 1543 1543 1543 1544 1545 1544 1544 1542 1541 1539 1539 1539 1536 1534
1524 1525 1526 1527 1528 1529 1531 1532 1534 1535 1536 1538 1539 1540 1541 1541 1542 1542 1543 1544 1544 1544 1544 1544 1544 1544 1545 1544 1544 1544 1544 1543 1541 1540 1539 1539 1538 1535
1527 1527 1528 1529 1530 1531 1532 1533 1535 1535 1537 1538 1539 1540 1541 1541 1542 1542 1543 1543 1544 1544 1544 1544 1545 1546 1546 1546 1544 1543 1543 1542 1541 1541 1539 1538 1537 1535
1529 1530 1530 1531 1532 1533 1533 1534 1535 1536 1537 1538 1539 1539 1540 1541 1541 1542 1543 1543 1543 1544 1544 1543 1544 1545 1546 1546 1544 1542 1541 1541 1541 1540 1539 1537 1535 1533
1530 1531 1531 1532 1533 1533 1534 1534 1535 1536 1536 1537 1538 1538 1539 1540 1540 1541 1541 1541 1543 1544 1544 1543 1542 1542 1542 1543 1544 1543 1541 1540 1538 1538 1537 1536 1536 1534
1531 1531 1532 1532 1533 1533 1533 1534 1535 1535 1536 1537 1537 1538 1538 1539 1539 1540 1541 1542 1542 1543 1543 1542 1541 1542 1543 1544 1544 1543 1541 1540 1538 1536 1535 1534 1534 1532
1531 1531 1531 1531 1532 1532 1533 1534 1534 1535 1535 1536 1536 1537 1537 1538 1539 1539 1540 1541 1541 1542 1542 1542 1542 1542 1542 1542 1543 1542 1541 1540 1539 1537 1536 1533 1532 1530